Погода в Выделе

Россия / Ростовская область     47°37′31″N   39°32′18″E
темп.,
°C
ветер,
м/с
пор.,
м/с
влажн.,
%
обл.,
%
осадки,
мм/ч
давл.,
гПа
погр.,
м
15 апреля, чт
чт1500:00+8зюз36864 0.0 1017167
03:00+7з22875 0.0 101728
06:00+7юз228737 0.0 101716
09:00+11ю34745 0.0 1017440
12:00+16ююз555642 0.0 10161137
15:00+16юз785590 0.0 10161436
18:00+13ююз596699 0.0 1016987
21:00+10ю36864 0.0 1017161
16 апреля, пт
пт1600:00+8ююз35890 0.0 1017122
03:00+7юз22875 0.0 101724
06:00+6юз11916 0.0 101811
09:00+11ююз23725 0.0 1019532
12:00+14ююз5656100 0.0 10181375
15:00+14юз6751100 0.0 10191325
18:00+12юз446422 0.0 1019934
21:00+9ююз237727 0.0 102062
17 апреля, сб
сб1700:00+8юз2579100 0.0 1020180
03:00+7зюз34875 0.0 102082
06:00+6зюз22905 0.0 102041
09:00+10зюз457332 0.2 1021730
12:00+13зюз55465 0.1 10211465
15:00+14зюз55449 0.1 10211755
18:00+12з545440 0.0 10211194
21:00+8зюз36731 0.0 1022149
18 апреля, вс
вс1800:00+7сз34741 0.0 102296
03:00+6с227645 0.0 102131
06:00+6всв127799 0.0 102115
09:00+9вюв2264100 0.0 1020417
12:00+13юв2247100 0.0 10191266
15:00+13ююв3246100 0.0 10191261
18:00+12ююв325488 0.0 1019500
21:00+9юв22665 0.0 101919
19 апреля, пн
пн1900:00+8ссз117087 0.0 101910
03:00+7с11716 0.0 101810
06:00+7ссв227499 0.0 101818
09:00+13всв23565 0.0 1018506
12:00+15в3342100 0.0 10171648
15:00+17всв3340100 0.0 10151802
18:00+15в4652100 0.0 1014277
21:00+12всв4973100 0.7 1014477